Wetterdaten: Dienstag, 21.04.2015
Datum Zeit Auen-Temp. Temp gefhlt Luftfeuchte Luftdruck Regen Wind Richtung Richtung Taupunkt Windben
21.04.2015 00:00 2,8 C 2,4 C 69 % 1023,8 hPa 0,0 mm 0,0 km/h (0 Bft) S-SO 157 -2,3 C 0,0 km/h (0 Bft)
21.04.2015 00:05 2,9 C 2,5 C 71 % 1023,8 hPa 0,0 mm 0,0 km/h (0 Bft) NO 45 -1,8 C 0,0 km/h (0 Bft)
21.04.2015 00:10 2,9 C 2,5 C 71 % 1023,8 hPa 0,0 mm 0,0 km/h (0 Bft) O-NO 67 -1,8 C 0,0 km/h (0 Bft)
21.04.2015 00:15 2,7 C 2,3 C 71 % 1024,0 hPa 0,0 mm 0,0 km/h (0 Bft) NO 45 -2,0 C 0,0 km/h (0 Bft)
21.04.2015 00:20 2,6 C 2,2 C 71 % 1024,0 hPa 0,0 mm 0,0 km/h (0 Bft) NO 45 -2,1 C 0,0 km/h (0 Bft)
21.04.2015 00:25 3,3 C 2,7 C 72 % 1024,0 hPa 0,0 mm 0,0 km/h (0 Bft) O-NO 67 -1,3 C 0,0 km/h (0 Bft)
21.04.2015 00:30 3,0 C 2,5 C 71 % 1024,0 hPa 0,0 mm 0,0 km/h (0 Bft) O-NO 67 -1,7 C 0,0 km/h (0 Bft)
21.04.2015 00:35 2,8 C 2,3 C 73 % 1024,1 hPa 0,0 mm 0,0 km/h (0 Bft) O-NO 67 -1,5 C 0,0 km/h (0 Bft)
21.04.2015 00:40 2,4 C 2,0 C 72 % 1024,1 hPa 0,0 mm 0,0 km/h (0 Bft) NO 45 -2,1 C 0,0 km/h (0 Bft)
21.04.2015 00:45 2,5 C 2,0 C 73 % 1024,1 hPa 0,0 mm 0,0 km/h (0 Bft) O-NO 67 -1,8 C 0,0 km/h (0 Bft)
21.04.2015 00:50 2,5 C 2,0 C 73 % 1024,1 hPa 0,0 mm 0,0 km/h (0 Bft) NO 45 -1,8 C 0,0 km/h (0 Bft)
21.04.2015 00:55 2,7 C 2,2 C 74 % 1024,0 hPa 0,0 mm 0,0 km/h (0 Bft) NO 45 -1,5 C 0,0 km/h (0 Bft)
21.04.2015 01:00 2,5 C 2,0 C 73 % 1024,0 hPa 0,0 mm 0,0 km/h (0 Bft) NO 45 -1,8 C 0,0 km/h (0 Bft)
21.04.2015 01:05 2,5 C 2,0 C 73 % 1024,0 hPa 0,0 mm 0,0 km/h (0 Bft) O-NO 67 -1,8 C 0,0 km/h (0 Bft)
21.04.2015 01:10 2,8 C 2,2 C 75 % 1024,0 hPa 0,0 mm 0,0 km/h (0 Bft) O-NO 67 -1,2 C 0,0 km/h (0 Bft)
21.04.2015 01:15 2,3 C 1,8 C 74 % 1024,1 hPa 0,0 mm 0,0 km/h (0 Bft) N-NO 22 -1,8 C 0,0 km/h (0 Bft)
21.04.2015 01:20 2,4 C 1,9 C 74 % 1024,1 hPa 0,0 mm 0,0 km/h (0 Bft) NO 45 -1,7 C 0,0 km/h (0 Bft)
21.04.2015 01:25 2,2 C 1,7 C 74 % 1024,1 hPa 0,0 mm 0,0 km/h (0 Bft) O-NO 67 -1,9 C 0,0 km/h (0 Bft)
21.04.2015 01:30 2,6 C 2,0 C 75 % 1024,1 hPa 0,0 mm 0,0 km/h (0 Bft) O-NO 67 -1,4 C 0,0 km/h (0 Bft)
21.04.2015 01:35 2,1 C 1,6 C 75 % 1024,2 hPa 0,0 mm 0,0 km/h (0 Bft) O 90 -1,9 C 0,0 km/h (0 Bft)
21.04.2015 01:40 2,3 C 1,7 C 75 % 1024,2 hPa 0,0 mm 0,0 km/h (0 Bft) NO 45 -1,7 C 0,0 km/h (0 Bft)
21.04.2015 01:45 2,1 C 1,6 C 74 % 1024,2 hPa 0,0 mm 0,0 km/h (0 Bft) NO 45 -2,0 C 0,0 km/h (0 Bft)
21.04.2015 01:50 1,9 C 1,4 C 75 % 1024,2 hPa 0,0 mm 0,0 km/h (0 Bft) N-NO 22 -2,1 C 0,0 km/h (0 Bft)
21.04.2015 01:55 1,9 C 1,3 C 75 % 1024,2 hPa 0,0 mm 0,0 km/h (0 Bft) O-NO 67 -2,1 C 0,0 km/h (0 Bft)
21.04.2015 02:00 2,0 C 1,4 C 75 % 1024,2 hPa 0,0 mm 0,0 km/h (0 Bft) O-NO 67 -2,0 C 0,0 km/h (0 Bft)
21.04.2015 02:05 2,0 C 1,4 C 76 % 1024,2 hPa 0,0 mm 0,0 km/h (0 Bft) O-NO 67 -1,8 C 0,0 km/h (0 Bft)
21.04.2015 02:10 1,9 C 1,3 C 76 % 1024,2 hPa 0,0 mm 0,0 km/h (0 Bft) O-NO 67 -1,9 C 0,0 km/h (0 Bft)
21.04.2015 02:15 1,9 C 1,3 C 76 % 1024,3 hPa 0,0 mm 0,0 km/h (0 Bft) O-NO 67 -1,9 C 0,0 km/h (0 Bft)
21.04.2015 02:20 2,0 C 1,4 C 77 % 1024,3 hPa 0,0 mm 0,0 km/h (0 Bft) NO 45 -1,6 C 0,0 km/h (0 Bft)
21.04.2015 02:25 1,6 C 1,2 C 77 % 1024,3 hPa 0,0 mm 0,0 km/h (0 Bft) O-NO 67 -2,0 C 0,0 km/h (0 Bft)
21.04.2015 02:30 1,8 C 1,3 C 77 % 1024,3 hPa 0,0 mm 0,0 km/h (0 Bft) O-NO 67 -1,8 C 0,0 km/h (0 Bft)
21.04.2015 02:35 1,5 C 1,1 C 77 % 1024,0 hPa 0,0 mm 0,0 km/h (0 Bft) O-NO 67 -2,1 C 0,0 km/h (0 Bft)
21.04.2015 02:40 1,7 C 1,2 C 78 % 1024,0 hPa 0,0 mm 0,0 km/h (0 Bft) O-NO 67 -1,7 C 0,0 km/h (0 Bft)
21.04.2015 02:45 1,6 C 1,1 C 78 % 1024,0 hPa 0,0 mm 0,0 km/h (0 Bft) O-NO 67 -1,8 C 0,0 km/h (0 Bft)
21.04.2015 02:50 1,8 C 1,2 C 78 % 1024,0 hPa 0,0 mm 0,0 km/h (0 Bft) O 90 -1,6 C 0,0 km/h (0 Bft)
21.04.2015 02:55 1,6 C 1,0 C 78 % 1024,0 hPa 0,0 mm 0,0 km/h (0 Bft) NO 45 -1,8 C 0,0 km/h (0 Bft)
21.04.2015 03:00 1,5 C 1,0 C 78 % 1024,0 hPa 0,0 mm 0,0 km/h (0 Bft) O 90 -1,9 C 0,0 km/h (0 Bft)
21.04.2015 03:05 1,7 C 1,1 C 79 % 1024,0 hPa 0,0 mm 0,0 km/h (0 Bft) O-NO 67 -1,5 C 0,0 km/h (0 Bft)
21.04.2015 03:10 1,5 C 1,0 C 79 % 1024,0 hPa 0,0 mm 0,3 km/h (0 Bft) NO 45 -1,7 C 0,0 km/h (0 Bft)
21.04.2015 03:15 1,8 C 1,2 C 79 % 1023,9 hPa 0,0 mm 0,3 km/h (0 Bft) O-NO 67 -1,4 C 0,0 km/h (0 Bft)
21.04.2015 03:20 1,6 C 1,0 C 79 % 1023,9 hPa 0,0 mm 0,0 km/h (0 Bft) O-SO 112 -1,6 C 0,0 km/h (0 Bft)
21.04.2015 03:25 1,2 C 0,7 C 79 % 1023,9 hPa 0,0 mm 0,0 km/h (0 Bft) N-NO 22 -2,0 C 0,0 km/h (0 Bft)
21.04.2015 03:30 1,2 C 0,7 C 78 % 1023,9 hPa 0,0 mm 0,0 km/h (0 Bft) NO 45 -2,2 C 0,0 km/h (0 Bft)
21.04.2015 03:35 1,1 C 0,6 C 79 % 1023,9 hPa 0,0 mm 0,0 km/h (0 Bft) O 90 -2,1 C 0,0 km/h (0 Bft)
21.04.2015 03:40 1,2 C 0,7 C 75 % 1023,9 hPa 0,0 mm 0,0 km/h (0 Bft) O-SO 112 -2,7 C 0,0 km/h (0 Bft)
21.04.2015 03:45 1,3 C 0,8 C 76 % 1023,9 hPa 0,0 mm 0,0 km/h (0 Bft) NO 45 -2,5 C 0,0 km/h (0 Bft)
21.04.2015 03:50 1,3 C 0,8 C 76 % 1023,9 hPa 0,0 mm 0,0 km/h (0 Bft) O-NO 67 -2,5 C 0,0 km/h (0 Bft)
21.04.2015 03:55 1,5 C 0,8 C 81 % 1023,9 hPa 0,0 mm 0,0 km/h (0 Bft) O-SO 112 -1,4 C 0,0 km/h (0 Bft)
21.04.2015 04:00 1,2 C 0,6 C 80 % 1023,9 hPa 0,0 mm 0,0 km/h (0 Bft) O-NO 67 -1,9 C 0,0 km/h (0 Bft)
21.04.2015 04:05 1,2 C 0,6 C 81 % 1023,9 hPa 0,0 mm 0,0 km/h (0 Bft) O-NO 67 -1,7 C 0,0 km/h (0 Bft)
21.04.2015 04:10 1,2 C 0,6 C 80 % 1023,9 hPa 0,0 mm 0,0 km/h (0 Bft) SO 135 -1,9 C 0,0 km/h (0 Bft)
21.04.2015 04:15 1,1 C 0,4 C 80 % 1023,9 hPa 0,0 mm 0,0 km/h (0 Bft) O-NO 67 -2,0 C 0,0 km/h (0 Bft)
21.04.2015 04:20 0,9 C 0,3 C 80 % 1023,9 hPa 0,0 mm 0,0 km/h (0 Bft) O-NO 67 -2,2 C 0,0 km/h (0 Bft)
21.04.2015 04:25 0,8 C 0,3 C 80 % 1023,9 hPa 0,0 mm 0,0 km/h (0 Bft) O-NO 67 -2,2 C 0,0 km/h (0 Bft)
21.04.2015 04:30 0,8 C 0,2 C 80 % 1023,9 hPa 0,0 mm 0,0 km/h (0 Bft) O-NO 67 -2,2 C 0,0 km/h (0 Bft)
21.04.2015 04:35 0,8 C 0,2 C 81 % 1023,8 hPa 0,0 mm 0,0 km/h (0 Bft) O 90 -2,1 C 0,0 km/h (0 Bft)
21.04.2015 04:40 0,8 C 0,2 C 81 % 1023,8 hPa 0,0 mm 0,0 km/h (0 Bft) O-SO 112 -2,1 C 0,0 km/h (0 Bft)
21.04.2015 04:45 0,9 C 0,4 C 77 % 1023,8 hPa 0,0 mm 0,0 km/h (0 Bft) O-SO 112 -2,7 C 0,0 km/h (0 Bft)
21.04.2015 04:50 1,0 C 0,4 C 82 % 1023,8 hPa 0,0 mm 0,0 km/h (0 Bft) O-NO 67 -1,7 C 0,0 km/h (0 Bft)
21.04.2015 04:55 0,9 C 0,3 C 83 % 1023,9 hPa 0,0 mm 0,0 km/h (0 Bft) O-NO 67 -1,7 C 0,0 km/h (0 Bft)
21.04.2015 05:00 0,7 C 0,1 C 82 % 1023,9 hPa 0,0 mm 0,0 km/h (0 Bft) O-NO 67 -2,0 C 0,0 km/h (0 Bft)
21.04.2015 05:05 0,4 C -0,2 C 81 % 1023,9 hPa 0,0 mm 0,0 km/h (0 Bft) O 90 -2,5 C 0,0 km/h (0 Bft)
21.04.2015 05:10 0,2 C -0,3 C 81 % 1023,9 hPa 0,0 mm 0,0 km/h (0 Bft) O-NO 67 -2,7 C 0,0 km/h (0 Bft)
21.04.2015 05:15 0,3 C -0,3 C 81 % 1023,8 hPa 0,0 mm 0,0 km/h (0 Bft) O-NO 67 -2,6 C 0,0 km/h (0 Bft)
21.04.2015 05:20 0,2 C -0,3 C 81 % 1023,8 hPa 0,0 mm 0,0 km/h (0 Bft) O 90 -2,7 C 0,0 km/h (0 Bft)
21.04.2015 05:25 0,0 C -0,5 C 81 % 1023,8 hPa 0,0 mm 0,0 km/h (0 Bft) O-NO 67 -2,9 C 0,0 km/h (0 Bft)
21.04.2015 05:30 0,1 C -0,4 C 81 % 1023,8 hPa 0,0 mm 0,0 km/h (0 Bft) O-SO 112 -2,8 C 0,0 km/h (0 Bft)
21.04.2015 05:35 -0,1 C -0,6 C 81 % 1024,1 hPa 0,0 mm 0,0 km/h (0 Bft) NO 45 -3,0 C 0,0 km/h (0 Bft)
21.04.2015 05:40 -0,1 C -0,6 C 81 % 1024,1 hPa 0,0 mm 0,0 km/h (0 Bft) NO 45 -3,0 C 0,0 km/h (0 Bft)
21.04.2015 05:45 0,0 C -0,5 C 82 % 1024,1 hPa 0,0 mm 0,0 km/h (0 Bft) NO 45 -2,7 C 0,0 km/h (0 Bft)
21.04.2015 05:50 -0,1 C -0,6 C 82 % 1024,1 hPa 0,0 mm 0,0 km/h (0 Bft) O-NO 67 -2,8 C 0,0 km/h (0 Bft)
21.04.2015 05:55 0,2 C -0,3 C 83 % 1024,4 hPa 0,0 mm 0,0 km/h (0 Bft) O-SO 112 -2,3 C 0,0 km/h (0 Bft)
21.04.2015 06:00 0,1 C -0,4 C 83 % 1024,4 hPa 0,0 mm 0,0 km/h (0 Bft) O-SO 112 -2,4 C 0,0 km/h (0 Bft)
21.04.2015 06:05 0,1 C -0,4 C 83 % 1024,4 hPa 0,0 mm 0,0 km/h (0 Bft) O-NO 67 -2,4 C 0,0 km/h (0 Bft)
21.04.2015 06:10 0,0 C -0,5 C 83 % 1024,4 hPa 0,0 mm 0,3 km/h (0 Bft) O-NO 67 -2,5 C 0,0 km/h (0 Bft)
21.04.2015 06:15 -0,3 C -0,7 C 82 % 1024,3 hPa 0,0 mm 0,3 km/h (0 Bft) NO 45 -3,0 C 0,0 km/h (0 Bft)
21.04.2015 06:20 -0,4 C -0,8 C 82 % 1024,3 hPa 0,0 mm 0,0 km/h (0 Bft) NO 45 -3,1 C 0,0 km/h (0 Bft)
21.04.2015 06:25 0,0 C -0,5 C 83 % 1024,3 hPa 0,0 mm 0,0 km/h (0 Bft) O-NO 67 -2,5 C 0,0 km/h (0 Bft)
21.04.2015 06:30 0,0 C -0,5 C 83 % 1024,3 hPa 0,0 mm 0,0 km/h (0 Bft) N-NO 22 -2,5 C 0,0 km/h (0 Bft)
21.04.2015 06:35 0,1 C -0,4 C 84 % 1024,5 hPa 0,0 mm 0,0 km/h (0 Bft) NO 45 -2,3 C 0,0 km/h (0 Bft)
21.04.2015 06:40 0,2 C -0,3 C 84 % 1024,5 hPa 0,0 mm 0,0 km/h (0 Bft) O-NO 67 -2,2 C 0,0 km/h (0 Bft)
21.04.2015 06:45 0,5 C 0,0 C 84 % 1024,5 hPa 0,0 mm 0,0 km/h (0 Bft) NO 45 -1,9 C 0,0 km/h (0 Bft)
21.04.2015 06:50 0,5 C 0,1 C 84 % 1024,5 hPa 0,0 mm 0,0 km/h (0 Bft) O-NO 67 -1,9 C 0,0 km/h (0 Bft)
21.04.2015 06:55 0,7 C 0,3 C 84 % 1024,7 hPa 0,0 mm 0,0 km/h (0 Bft) O 90 -1,7 C 0,0 km/h (0 Bft)
21.04.2015 07:00 0,7 C 0,3 C 85 % 1024,7 hPa 0,0 mm 0,0 km/h (0 Bft) SO 135 -1,5 C 0,0 km/h (0 Bft)
21.04.2015 07:05 0,9 C 0,6 C 85 % 1024,7 hPa 0,0 mm 0,0 km/h (0 Bft) O 90 -1,3 C 0,0 km/h (0 Bft)
21.04.2015 07:10 0,8 C 0,5 C 85 % 1024,7 hPa 0,0 mm 0,0 km/h (0 Bft) O 90 -1,4 C 0,0 km/h (0 Bft)
21.04.2015 07:15 1,0 C 0,7 C 84 % 1025,2 hPa 0,0 mm 0,0 km/h (0 Bft) O 90 -1,4 C 0,0 km/h (0 Bft)
21.04.2015 07:20 1,1 C 0,9 C 84 % 1025,2 hPa 0,0 mm 0,0 km/h (0 Bft) O 90 -1,3 C 0,0 km/h (0 Bft)
21.04.2015 07:25 1,3 C 2,5 C 85 % 1025,2 hPa 0,0 mm 0,0 km/h (0 Bft) O 90 -0,9 C 0,0 km/h (0 Bft)
21.04.2015 07:30 1,5 C 4,2 C 85 % 1025,2 hPa 0,0 mm 0,0 km/h (0 Bft) O 90 -0,7 C 0,0 km/h (0 Bft)
21.04.2015 07:35 1,7 C 6,5 C 85 % 1025,2 hPa 0,0 mm 0,0 km/h (0 Bft) O 90 -0,5 C 0,0 km/h (0 Bft)
21.04.2015 07:40 1,8 C 7,5 C 84 % 1025,2 hPa 0,0 mm 0,0 km/h (0 Bft) O 90 -0,6 C 0,0 km/h (0 Bft)
21.04.2015 07:45 2,0 C 8,9 C 79 % 1025,2 hPa 0,0 mm 0,0 km/h (0 Bft) O 90 -1,2 C 0,0 km/h (0 Bft)
21.04.2015 07:50 2,8 C 9,9 C 79 % 1025,2 hPa 0,0 mm 0,0 km/h (0 Bft) O 90 -0,5 C 0,0 km/h (0 Bft)
21.04.2015 07:55 4,0 C 11,2 C 78 % 1025,2 hPa 0,0 mm 0,0 km/h (0 Bft) O 90 0,5 C 0,0 km/h (0 Bft)
21.04.2015 08:00 4,9 C 11,9 C 81 % 1025,2 hPa 0,0 mm 0,0 km/h (0 Bft) O 90 1,9 C 0,0 km/h (0 Bft)
21.04.2015 08:05 5,7 C 13,5 C 79 % 1025,2 hPa 0,0 mm 0,0 km/h (0 Bft) O 90 2,3 C 0,0 km/h (0 Bft)
21.04.2015 08:10 5,9 C 14,4 C 78 % 1025,2 hPa 0,0 mm 0,0 km/h (0 Bft) O 90 2,4 C 0,0 km/h (0 Bft)
21.04.2015 08:15 6,4 C 14,6 C 75 % 1025,6 hPa 0,0 mm 0,0 km/h (0 Bft) O 90 2,3 C 0,0 km/h (0 Bft)
21.04.2015 08:20 6,8 C 14,9 C 71 % 1025,6 hPa 0,0 mm 0,0 km/h (0 Bft) O 90 1,9 C 0,0 km/h (0 Bft)
21.04.2015 08:25 7,2 C 15,2 C 70 % 1025,6 hPa 0,0 mm 0,0 km/h (0 Bft) O-NO 67 2,1 C 0,0 km/h (0 Bft)
21.04.2015 08:30 7,4 C 15,2 C 70 % 1025,6 hPa 0,0 mm 0,0 km/h (0 Bft) O-SO 112 2,3 C 0,0 km/h (0 Bft)
21.04.2015 08:35 8,2 C 15,9 C 69 % 1025,9 hPa 0,0 mm 0,0 km/h (0 Bft) NO 45 2,9 C 0,0 km/h (0 Bft)
21.04.2015 08:40 8,5 C 17,2 C 69 % 1025,9 hPa 0,0 mm 0,0 km/h (0 Bft) O-NO 67 3,1 C 0,0 km/h (0 Bft)
21.04.2015 08:45 9,4 C 18,6 C 67 % 1025,9 hPa 0,0 mm 0,0 km/h (0 Bft) N-NO 22 3,6 C 0,0 km/h (0 Bft)
21.04.2015 08:50 9,7 C 19,2 C 66 % 1025,9 hPa 0,0 mm 0,0 km/h (0 Bft) NO 45 3,7 C 0,0 km/h (0 Bft)
21.04.2015 08:55 10,2 C 20,1 C 66 % 1026,3 hPa 0,0 mm 0,0 km/h (0 Bft) O-NO 67 4,1 C 0,0 km/h (0 Bft)
21.04.2015 09:00 11,1 C 20,8 C 65 % 1026,3 hPa 0,0 mm 0,0 km/h (0 Bft) NW 315 4,8 C 0,0 km/h (0 Bft)
21.04.2015 09:05 11,1 C 21,0 C 62 % 1026,3 hPa 0,0 mm 0,5 km/h (0 Bft) NO 45 4,1 C 0,0 km/h (0 Bft)
21.04.2015 09:10 11,7 C 21,3 C 62 % 1026,3 hPa 0,0 mm 0,5 km/h (0 Bft) O-NO 67 4,7 C 0,0 km/h (0 Bft)
21.04.2015 09:15 12,3 C 21,5 C 60 % 1026,4 hPa 0,0 mm 1,0 km/h (0 Bft) SW 225 4,8 C 0,0 km/h (0 Bft)
21.04.2015 09:20 12,2 C 21,3 C 59 % 1026,4 hPa 0,0 mm 0,8 km/h (0 Bft) NO 45 4,4 C 0,0 km/h (0 Bft)
21.04.2015 09:25 12,4 C 21,5 C 59 % 1026,4 hPa 0,0 mm 0,5 km/h (0 Bft) N-NO 22 4,6 C 3,4 km/h (1 Bft)
21.04.2015 09:30 12,7 C 21,2 C 58 % 1026,4 hPa 0,0 mm 0,8 km/h (0 Bft) NO 45 4,7 C 4,9 km/h (1 Bft)
21.04.2015 09:35 12,6 C 20,7 C 57 % 1026,5 hPa 0,0 mm 1,8 km/h (1 Bft) NO 45 4,3 C 7,8 km/h (2 Bft)
21.04.2015 09:40 12,8 C 20,6 C 57 % 1026,5 hPa 0,0 mm 2,1 km/h (1 Bft) N-NO 22 4,5 C 0,0 km/h (0 Bft)
21.04.2015 09:45 13,0 C 20,4 C 55 % 1026,5 hPa 0,0 mm 2,6 km/h (1 Bft) O-NO 67 4,2 C 5,7 km/h (1 Bft)
21.04.2015 09:50 13,2 C 20,3 C 55 % 1026,5 hPa 0,0 mm 2,3 km/h (1 Bft) N-NO 22 4,4 C 6,5 km/h (2 Bft)
21.04.2015 09:55 13,1 C 20,5 C 53 % 1026,4 hPa 0,0 mm 2,6 km/h (1 Bft) O-SO 112 3,7 C 8,3 km/h (2 Bft)
21.04.2015 10:00 12,7 C 20,2 C 54 % 1026,4 hPa 0,0 mm 3,4 km/h (1 Bft) O-SO 112 3,6 C 2,6 km/h (1 Bft)
21.04.2015 10:05 13,0 C 20,0 C 52 % 1026,4 hPa 0,0 mm 2,6 km/h (1 Bft) O-NO 67 3,4 C 9,3 km/h (2 Bft)
21.04.2015 10:10 13,3 C 20,0 C 53 % 1026,4 hPa 0,0 mm 1,6 km/h (1 Bft) W-SW 247 3,9 C 0,0 km/h (0 Bft)
21.04.2015 10:15 13,2 C 20,1 C 51 % 1026,6 hPa 0,0 mm 3,4 km/h (1 Bft) N 360 3,3 C 5,4 km/h (1 Bft)
21.04.2015 10:20 13,3 C 20,4 C 51 % 1026,6 hPa 0,0 mm 3,6 km/h (1 Bft) NO 45 3,4 C 0,0 km/h (0 Bft)
21.04.2015 10:25 14,0 C 21,3 C 51 % 1026,6 hPa 0,0 mm 2,1 km/h (1 Bft) NO 45 4,0 C 5,7 km/h (1 Bft)
21.04.2015 10:30 14,1 C 21,2 C 49 % 1026,6 hPa 0,0 mm 2,1 km/h (1 Bft) O-NO 67 3,6 C 3,4 km/h (1 Bft)
21.04.2015 10:35 14,4 C 21,4 C 50 % 1026,6 hPa 0,0 mm 2,6 km/h (1 Bft) W-NW 292 4,1 C 4,7 km/h (1 Bft)
21.04.2015 10:40 14,7 C 21,0 C 49 % 1026,6 hPa 0,0 mm 4,4 km/h (1 Bft) N-NO 22 4,1 C 6,5 km/h (2 Bft)
21.04.2015 10:45 15,0 C 20,9 C 49 % 1026,6 hPa 0,0 mm 4,9 km/h (1 Bft) N-NW 337 4,4 C 14,5 km/h (3 Bft)
21.04.2015 10:50 15,0 C 20,9 C 49 % 1026,6 hPa 0,0 mm 5,2 km/h (1 Bft) W-NW 292 4,4 C 13,7 km/h (3 Bft)
21.04.2015 10:55 14,8 C 20,1 C 49 % 1026,9 hPa 0,0 mm 7,3 km/h (2 Bft) N-NO 22 4,2 C 9,3 km/h (2 Bft)
21.04.2015 11:00 14,7 C 19,9 C 49 % 1026,9 hPa 0,0 mm 7,8 km/h (2 Bft) W 270 4,1 C 11,4 km/h (2 Bft)
21.04.2015 11:05 14,6 C 19,6 C 48 % 1026,9 hPa 0,0 mm 7,8 km/h (2 Bft) N-NO 22 3,7 C 14,8 km/h (3 Bft)
21.04.2015 11:10 14,7 C 19,6 C 48 % 1026,9 hPa 0,0 mm 7,5 km/h (2 Bft) NW 315 3,8 C 11,4 km/h (2 Bft)
21.04.2015 11:15 14,8 C 19,3 C 49 % 1026,9 hPa 0,0 mm 8,0 km/h (2 Bft) W-NW 292 4,2 C 16,3 km/h (3 Bft)
21.04.2015 11:20 15,0 C 19,5 C 48 % 1026,9 hPa 0,0 mm 7,5 km/h (2 Bft) N-NO 22 4,1 C 7,8 km/h (2 Bft)
21.04.2015 11:25 15,1 C 19,9 C 48 % 1026,9 hPa 0,0 mm 6,5 km/h (2 Bft) NW 315 4,2 C 11,1 km/h (2 Bft)
21.04.2015 11:30 15,0 C 19,7 C 48 % 1026,9 hPa 0,0 mm 7,5 km/h (2 Bft) N-NO 22 4,1 C 3,1 km/h (1 Bft)
21.04.2015 11:35 15,4 C 20,0 C 47 % 1027,1 hPa 0,0 mm 7,5 km/h (2 Bft) NW 315 4,1 C 11,9 km/h (2 Bft)
21.04.2015 11:40 15,4 C 20,0 C 46 % 1027,1 hPa 0,0 mm 5,7 km/h (1 Bft) N-NW 337 3,8 C 8,8 km/h (2 Bft)
21.04.2015 11:45 15,4 C 19,9 C 46 % 1027,1 hPa 0,0 mm 7,0 km/h (2 Bft) N-NW 337 3,8 C 4,4 km/h (1 Bft)
21.04.2015 11:50 15,8 C 20,1 C 46 % 1027,1 hPa 0,0 mm 7,3 km/h (2 Bft) N-NW 337 4,2 C 11,9 km/h (2 Bft)
21.04.2015 11:55 15,4 C 20,1 C 46 % 1027,1 hPa 0,0 mm 5,4 km/h (1 Bft) W-NW 292 3,8 C 18,1 km/h (3 Bft)
21.04.2015 12:00 15,6 C 20,7 C 46 % 1027,1 hPa 0,0 mm 5,2 km/h (1 Bft) N-NO 22 4,0 C 11,9 km/h (2 Bft)
21.04.2015 12:05 15,3 C 20,8 C 45 % 1027,1 hPa 0,0 mm 3,1 km/h (1 Bft) O-NO 67 3,4 C 3,1 km/h (1 Bft)
21.04.2015 12:10 15,8 C 21,5 C 45 % 1027,1 hPa 0,0 mm 4,1 km/h (1 Bft) N 360 3,9 C 16,6 km/h (3 Bft)
21.04.2015 12:15 15,5 C 20,7 C 43 % 1027,1 hPa 0,0 mm 6,0 km/h (2 Bft) O 90 3,0 C 6,2 km/h (2 Bft)
21.04.2015 12:20 15,5 C 20,7 C 43 % 1027,1 hPa 0,0 mm 6,0 km/h (2 Bft) SO 135 3,0 C 2,6 km/h (1 Bft)
21.04.2015 12:25 16,0 C 21,3 C 43 % 1027,1 hPa 0,0 mm 2,8 km/h (1 Bft) SW 225 3,4 C 4,4 km/h (1 Bft)
21.04.2015 12:30 15,6 C 21,0 C 43 % 1027,1 hPa 0,0 mm 4,7 km/h (1 Bft) O-SO 112 3,1 C 7,0 km/h (2 Bft)
21.04.2015 12:35 15,8 C 20,8 C 43 % 1027,3 hPa 0,0 mm 6,7 km/h (2 Bft) N-NO 22 3,3 C 7,8 km/h (2 Bft)
21.04.2015 12:40 16,0 C 20,4 C 42 % 1027,3 hPa 0,0 mm 8,0 km/h (2 Bft) NW 315 3,1 C 18,1 km/h (3 Bft)
21.04.2015 12:45 16,6 C 20,3 C 42 % 1027,3 hPa 0,0 mm 8,5 km/h (2 Bft) W 270 3,6 C 13,7 km/h (3 Bft)
21.04.2015 12:50 16,6 C 20,2 C 41 % 1027,3 hPa 0,0 mm 8,5 km/h (2 Bft) NW 315 3,3 C 12,4 km/h (3 Bft)
21.04.2015 12:55 16,7 C 20,0 C 40 % 1027,5 hPa 0,0 mm 9,6 km/h (2 Bft) NO 45 3,0 C 6,0 km/h (2 Bft)
21.04.2015 13:00 16,5 C 20,1 C 39 % 1027,5 hPa 0,0 mm 9,8 km/h (2 Bft) NW 315 2,5 C 13,5 km/h (3 Bft)
21.04.2015 13:05 16,4 C 20,1 C 38 % 1027,5 hPa 0,0 mm 8,0 km/h (2 Bft) SW 225 2,1 C 18,9 km/h (3 Bft)
21.04.2015 13:10 16,7 C 20,4 C 39 % 1027,5 hPa 0,0 mm 6,7 km/h (2 Bft) W-NW 292 2,7 C 20,5 km/h (4 Bft)
21.04.2015 13:15 16,7 C 19,3 C 37 % 1027,3 hPa 0,0 mm 8,0 km/h (2 Bft) NW 315 1,9 C 11,9 km/h (2 Bft)
21.04.2015 13:20 17,0 C 19,0 C 38 % 1027,3 hPa 0,0 mm 10,4 km/h (2 Bft) NO 45 2,6 C 11,7 km/h (2 Bft)
21.04.2015 13:21 16,7 C 19,2 C 37 % 1027,3 hPa 0,0 mm 7,0 km/h (2 Bft) N-NW 337 1,9 C 13,5 km/h (3 Bft)
21.04.2015 13:24 16,7 C 19,2 C 37 % 1027,3 hPa 0,0 mm 7,0 km/h (2 Bft) N-NW 337 1,9 C 13,5 km/h (3 Bft)
21.04.2015 13:25 16,7 C 19,2 C 37 % 1027,3 hPa 0,0 mm 7,0 km/h (2 Bft) N-NW 337 1,9 C 13,5 km/h (3 Bft)
21.04.2015 13:30 16,7 C 18,8 C 36 % 1027,3 hPa 0,0 mm 6,5 km/h (2 Bft) NW 315 1,6 C 6,5 km/h (2 Bft)
21.04.2015 13:35 16,9 C 19,3 C 37 % 1027,1 hPa 0,0 mm 5,4 km/h (1 Bft) O-SO 112 2,1 C 0,0 km/h (0 Bft)
21.04.2015 13:40 16,5 C 20,4 C 35 % 1027,1 hPa 0,0 mm 4,4 km/h (1 Bft) W-SW 247 1,0 C 5,2 km/h (1 Bft)
21.04.2015 13:45 17,1 C 21,4 C 36 % 1027,1 hPa 0,0 mm 3,9 km/h (1 Bft) NO 45 1,9 C 10,4 km/h (2 Bft)
21.04.2015 13:50 16,8 C 21,1 C 36 % 1027,1 hPa 0,0 mm 5,2 km/h (1 Bft) O-NO 67 1,7 C 6,7 km/h (2 Bft)
21.04.2015 13:55 16,7 C 20,9 C 36 % 1026,8 hPa 0,0 mm 6,7 km/h (2 Bft) NO 45 1,6 C 0,0 km/h (0 Bft)
21.04.2015 14:00 16,7 C 21,2 C 36 % 1026,8 hPa 0,0 mm 6,2 km/h (2 Bft) N-NO 22 1,6 C 6,2 km/h (2 Bft)
21.04.2015 14:05 16,9 C 21,6 C 35 % 1026,8 hPa 0,0 mm 5,7 km/h (1 Bft) N-NO 22 1,3 C 7,8 km/h (2 Bft)
21.04.2015 14:10 16,8 C 21,5 C 35 % 1026,8 hPa 0,0 mm 6,5 km/h (2 Bft) N-NW 337 1,3 C 8,0 km/h (2 Bft)
21.04.2015 14:15 17,3 C 21,1 C 35 % 1026,6 hPa 0,0 mm 9,3 km/h (2 Bft) N-NW 337 1,7 C 10,9 km/h (2 Bft)
21.04.2015 14:20 17,5 C 21,2 C 35 % 1026,6 hPa 0,0 mm 8,0 km/h (2 Bft) W-NW 292 1,9 C 4,7 km/h (1 Bft)
21.04.2015 14:25 17,5 C 21,5 C 34 % 1026,6 hPa 0,0 mm 6,0 km/h (2 Bft) N-NW 337 1,5 C 6,7 km/h (2 Bft)
21.04.2015 14:30 17,5 C 21,4 C 33 % 1026,6 hPa 0,0 mm 8,0 km/h (2 Bft) NO 45 1,1 C 10,4 km/h (2 Bft)
21.04.2015 14:35 17,5 C 21,6 C 33 % 1026,6 hPa 0,0 mm 7,3 km/h (2 Bft) O 90 1,1 C 7,8 km/h (2 Bft)
21.04.2015 14:40 17,5 C 21,9 C 34 % 1026,6 hPa 0,0 mm 5,7 km/h (1 Bft) N-NO 22 1,5 C 17,1 km/h (3 Bft)
21.04.2015 14:45 17,5 C 21,7 C 33 % 1026,6 hPa 0,0 mm 8,0 km/h (2 Bft) NO 45 1,1 C 14,8 km/h (3 Bft)
21.04.2015 14:50 17,3 C 21,2 C 33 % 1026,6 hPa 0,0 mm 10,4 km/h (2 Bft) N-NW 337 0,9 C 4,9 km/h (1 Bft)
21.04.2015 14:55 17,5 C 21,4 C 33 % 1026,4 hPa 0,0 mm 8,0 km/h (2 Bft) O-NO 67 1,1 C 2,6 km/h (1 Bft)
21.04.2015 15:00 17,8 C 21,9 C 33 % 1026,4 hPa 0,0 mm 6,7 km/h (2 Bft) NO 45 1,3 C 14,5 km/h (3 Bft)
21.04.2015 15:05 17,9 C 21,7 C 33 % 1026,4 hPa 0,0 mm 7,8 km/h (2 Bft) W-NW 292 1,4 C 7,8 km/h (2 Bft)
21.04.2015 15:10 18,0 C 21,8 C 33 % 1026,4 hPa 0,0 mm 8,3 km/h (2 Bft) NO 45 1,5 C 8,0 km/h (2 Bft)
21.04.2015 15:15 18,2 C 22,0 C 33 % 1026,1 hPa 0,0 mm 7,0 km/h (2 Bft) W-NW 292 1,7 C 10,9 km/h (2 Bft)
21.04.2015 15:20 18,2 C 22,2 C 33 % 1026,1 hPa 0,0 mm 6,5 km/h (2 Bft) NW 315 1,7 C 5,2 km/h (1 Bft)
21.04.2015 15:25 18,3 C 22,4 C 33 % 1026,1 hPa 0,0 mm 5,7 km/h (1 Bft) SW 225 1,8 C 2,6 km/h (1 Bft)
21.04.2015 15:30 18,0 C 22,4 C 32 % 1026,1 hPa 0,0 mm 6,0 km/h (2 Bft) NW 315 1,1 C 7,8 km/h (2 Bft)
21.04.2015 15:35 17,9 C 22,6 C 33 % 1025,9 hPa 0,0 mm 5,7 km/h (1 Bft) NW 315 1,4 C 5,4 km/h (1 Bft)
21.04.2015 15:40 18,2 C 22,4 C 33 % 1025,9 hPa 0,0 mm 6,2 km/h (2 Bft) W 270 1,7 C 12,2 km/h (2 Bft)
21.04.2015 15:45 18,3 C 22,1 C 33 % 1025,9 hPa 0,0 mm 7,5 km/h (2 Bft) NW 315 1,8 C 9,3 km/h (2 Bft)
21.04.2015 15:50 18,4 C 21,9 C 33 % 1025,9 hPa 0,0 mm 7,8 km/h (2 Bft) NW 315 1,8 C 6,2 km/h (2 Bft)
21.04.2015 15:55 18,2 C 21,9 C 33 % 1025,7 hPa 0,0 mm 7,0 km/h (2 Bft) NW 315 1,7 C 6,0 km/h (2 Bft)
21.04.2015 16:00 18,1 C 22,3 C 32 % 1025,7 hPa 0,0 mm 5,2 km/h (1 Bft) N-NW 337 1,2 C 5,4 km/h (1 Bft)
21.04.2015 16:05 18,2 C 22,7 C 33 % 1025,7 hPa 0,0 mm 5,2 km/h (1 Bft) NW 315 1,7 C 10,4 km/h (2 Bft)
21.04.2015 16:10 18,1 C 22,6 C 33 % 1025,7 hPa 0,0 mm 6,0 km/h (2 Bft) W-NW 292 1,6 C 10,1 km/h (2 Bft)
21.04.2015 16:15 17,8 C 22,7 C 33 % 1025,5 hPa 0,0 mm 5,2 km/h (1 Bft) S-SW 202 1,3 C 7,3 km/h (2 Bft)
21.04.2015 16:20 17,5 C 22,8 C 33 % 1025,5 hPa 0,0 mm 3,6 km/h (1 Bft) S 180 1,1 C 3,1 km/h (1 Bft)
21.04.2015 16:25 17,7 C 23,6 C 33 % 1025,5 hPa 0,0 mm 2,3 km/h (1 Bft) SW 225 1,2 C 5,4 km/h (1 Bft)
21.04.2015 16:30 17,6 C 23,7 C 34 % 1025,5 hPa 0,0 mm 2,6 km/h (1 Bft) N-NW 337 1,6 C 4,9 km/h (1 Bft)
21.04.2015 16:35 17,8 C 23,4 C 34 % 1025,3 hPa 0,0 mm 4,9 km/h (1 Bft) W-SW 247 1,7 C 4,7 km/h (1 Bft)
21.04.2015 16:40 17,6 C 23,5 C 33 % 1025,3 hPa 0,0 mm 4,4 km/h (1 Bft) N-NO 22 1,1 C 7,8 km/h (2 Bft)
21.04.2015 16:45 17,3 C 22,9 C 32 % 1025,3 hPa 0,0 mm 4,1 km/h (1 Bft) NO 45 0,5 C 4,4 km/h (1 Bft)
21.04.2015 16:50 17,1 C 21,8 C 31 % 1025,3 hPa 0,0 mm 6,5 km/h (2 Bft) O-NO 67 -0,2 C 5,4 km/h (1 Bft)
21.04.2015 16:55 17,1 C 20,6 C 31 % 1025,2 hPa 0,0 mm 5,7 km/h (1 Bft) O-NO 67 -0,2 C 5,7 km/h (1 Bft)
21.04.2015 17:00 17,0 C 20,1 C 31 % 1025,2 hPa 0,0 mm 3,9 km/h (1 Bft) SO 135 -0,2 C 4,1 km/h (1 Bft)
21.04.2015 17:05 17,0 C 20,3 C 32 % 1025,2 hPa 0,0 mm 2,8 km/h (1 Bft) W 270 0,2 C 5,7 km/h (1 Bft)
21.04.2015 17:10 17,1 C 20,3 C 32 % 1025,2 hPa 0,0 mm 3,4 km/h (1 Bft) W 270 0,3 C 9,1 km/h (2 Bft)
21.04.2015 17:15 17,1 C 19,8 C 32 % 1025,2 hPa 0,0 mm 6,7 km/h (2 Bft) NW 315 0,3 C 12,2 km/h (2 Bft)
21.04.2015 17:20 17,0 C 19,3 C 32 % 1025,2 hPa 0,0 mm 8,5 km/h (2 Bft) NW 315 0,2 C 7,0 km/h (2 Bft)
21.04.2015 17:25 17,2 C 18,3 C 32 % 1025,2 hPa 0,0 mm 9,3 km/h (2 Bft) NW 315 0,4 C 14,2 km/h (3 Bft)
21.04.2015 17:30 17,1 C 18,0 C 31 % 1025,2 hPa 0,0 mm 8,8 km/h (2 Bft) NW 315 -0,2 C 3,4 km/h (1 Bft)
21.04.2015 17:35 16,7 C 17,6 C 31 % 1025,1 hPa 0,0 mm 4,9 km/h (1 Bft) W-SW 247 -0,5 C 2,8 km/h (1 Bft)
21.04.2015 17:40 16,7 C 17,7 C 31 % 1025,1 hPa 0,0 mm 2,1 km/h (1 Bft) O 90 -0,5 C 0,0 km/h (0 Bft)
21.04.2015 17:45 16,8 C 18,0 C 30 % 1025,1 hPa 0,0 mm 3,6 km/h (1 Bft) NO 45 -0,9 C 7,8 km/h (2 Bft)
21.04.2015 17:50 16,8 C 17,8 C 30 % 1025,1 hPa 0,0 mm 6,2 km/h (2 Bft) S 180 -0,9 C 4,4 km/h (1 Bft)
21.04.2015 17:55 16,8 C 17,5 C 30 % 1025,1 hPa 0,0 mm 5,4 km/h (1 Bft) NW 315 -0,9 C 0,0 km/h (0 Bft)
21.04.2015 18:00 16,7 C 17,9 C 30 % 1025,1 hPa 0,0 mm 3,6 km/h (1 Bft) N-NW 337 -0,9 C 8,3 km/h (2 Bft)
21.04.2015 18:05 16,7 C 18,0 C 30 % 1025,1 hPa 0,0 mm 3,1 km/h (1 Bft) W-SW 247 -0,9 C 4,1 km/h (1 Bft)
21.04.2015 18:10 16,5 C 17,8 C 30 % 1025,1 hPa 0,0 mm 3,6 km/h (1 Bft) W-SW 247 -1,1 C 4,7 km/h (1 Bft)
21.04.2015 18:15 16,6 C 17,8 C 31 % 1024,9 hPa 0,0 mm 3,4 km/h (1 Bft) NW 315 -0,6 C 8,0 km/h (2 Bft)
21.04.2015 18:20 16,7 C 17,7 C 31 % 1024,9 hPa 0,0 mm 4,4 km/h (1 Bft) NW 315 -0,5 C 6,5 km/h (2 Bft)
21.04.2015 18:25 16,3 C 18,0 C 31 % 1024,9 hPa 0,0 mm 3,4 km/h (1 Bft) NO 45 -0,8 C 0,0 km/h (0 Bft)
21.04.2015 18:30 16,2 C 18,5 C 31 % 1024,9 hPa 0,0 mm 2,6 km/h (1 Bft) NW 315 -0,9 C 4,4 km/h (1 Bft)
21.04.2015 18:35 16,1 C 18,6 C 31 % 1025,0 hPa 0,0 mm 4,1 km/h (1 Bft) N-NW 337 -1,0 C 4,7 km/h (1 Bft)
21.04.2015 18:40 16,0 C 18,9 C 31 % 1025,0 hPa 0,0 mm 5,2 km/h (1 Bft) W-NW 292 -1,1 C 4,4 km/h (1 Bft)
21.04.2015 18:45 16,1 C 18,3 C 32 % 1025,0 hPa 0,0 mm 3,9 km/h (1 Bft) NW 315 -0,6 C 3,9 km/h (1 Bft)
21.04.2015 18:50 16,2 C 18,2 C 32 % 1025,0 hPa 0,0 mm 3,9 km/h (1 Bft) W-SW 247 -0,5 C 4,7 km/h (1 Bft)
21.04.2015 18:55 16,3 C 18,1 C 33 % 1024,9 hPa 0,0 mm 4,7 km/h (1 Bft) NW 315 0,0 C 5,4 km/h (1 Bft)
21.04.2015 19:00 16,4 C 18,0 C 33 % 1024,9 hPa 0,0 mm 4,7 km/h (1 Bft) NW 315 0,1 C 4,9 km/h (1 Bft)
21.04.2015 19:05 16,5 C 18,0 C 33 % 1024,9 hPa 0,0 mm 4,4 km/h (1 Bft) NW 315 0,2 C 4,1 km/h (1 Bft)
21.04.2015 19:10 16,4 C 18,2 C 33 % 1024,9 hPa 0,0 mm 4,1 km/h (1 Bft) NW 315 0,1 C 3,9 km/h (1 Bft)
21.04.2015 19:15 16,3 C 18,2 C 33 % 1024,9 hPa 0,0 mm 3,1 km/h (1 Bft) NW 315 0,0 C 0,0 km/h (0 Bft)
21.04.2015 19:20 16,2 C 18,3 C 33 % 1024,9 hPa 0,0 mm 2,6 km/h (1 Bft) NW 315 -0,1 C 3,4 km/h (1 Bft)
21.04.2015 19:25 15,7 C 18,0 C 33 % 1024,9 hPa 0,0 mm 1,8 km/h (1 Bft) NW 315 -0,5 C 0,0 km/h (0 Bft)
21.04.2015 19:30 15,4 C 17,8 C 33 % 1024,9 hPa 0,0 mm 1,3 km/h (1 Bft) W 270 -0,8 C 0,0 km/h (0 Bft)
21.04.2015 19:35 15,0 C 17,7 C 32 % 1024,9 hPa 0,0 mm 1,8 km/h (1 Bft) W 270 -1,5 C 3,6 km/h (1 Bft)
21.04.2015 19:40 15,0 C 17,4 C 33 % 1024,9 hPa 0,0 mm 3,1 km/h (1 Bft) W-NW 292 -1,1 C 3,4 km/h (1 Bft)
21.04.2015 19:45 14,5 C 16,6 C 34 % 1024,9 hPa 0,0 mm 2,3 km/h (1 Bft) NW 315 -1,2 C 2,6 km/h (1 Bft)
21.04.2015 19:50 14,3 C 16,2 C 34 % 1024,9 hPa 0,0 mm 1,6 km/h (1 Bft) W-NW 292 -1,3 C 0,0 km/h (0 Bft)
21.04.2015 19:55 13,9 C 15,4 C 35 % 1024,7 hPa 0,0 mm 0,8 km/h (0 Bft) W 270 -1,3 C 0,0 km/h (0 Bft)
21.04.2015 20:00 13,6 C 14,8 C 37 % 1024,7 hPa 0,0 mm 0,5 km/h (0 Bft) W-SW 247 -0,8 C 2,6 km/h (1 Bft)
21.04.2015 20:05 13,3 C 13,9 C 41 % 1024,7 hPa 0,0 mm 1,3 km/h (1 Bft) S 180 0,3 C 5,7 km/h (1 Bft)
21.04.2015 20:10 12,6 C 13,5 C 45 % 1024,7 hPa 0,0 mm 2,8 km/h (1 Bft) S 180 1,0 C 6,0 km/h (2 Bft)
21.04.2015 20:15 12,4 C 12,8 C 46 % 1025,1 hPa 0,0 mm 4,4 km/h (1 Bft) S 180 1,1 C 4,4 km/h (1 Bft)
21.04.2015 20:20 12,2 C 12,4 C 47 % 1025,1 hPa 0,0 mm 4,1 km/h (1 Bft) S 180 1,2 C 5,2 km/h (1 Bft)
21.04.2015 20:25 11,9 C 12,0 C 47 % 1025,1 hPa 0,0 mm 4,4 km/h (1 Bft) S-SO 157 1,0 C 4,9 km/h (1 Bft)
21.04.2015 20:30 11,6 C 11,8 C 48 % 1025,1 hPa 0,0 mm 4,9 km/h (1 Bft) SO 135 1,0 C 7,3 km/h (2 Bft)
21.04.2015 20:35 11,1 C 11,3 C 49 % 1025,1 hPa 0,0 mm 5,7 km/h (1 Bft) S-SO 157 0,8 C 5,7 km/h (1 Bft)
21.04.2015 20:40 10,7 C 11,0 C 51 % 1025,1 hPa 0,0 mm 5,2 km/h (1 Bft) SO 135 1,0 C 4,7 km/h (1 Bft)
21.04.2015 20:45 10,3 C 10,4 C 52 % 1025,1 hPa 0,0 mm 4,1 km/h (1 Bft) SO 135 0,9 C 3,9 km/h (1 Bft)
21.04.2015 20:50 10,1 C 10,1 C 52 % 1025,1 hPa 0,0 mm 3,6 km/h (1 Bft) S-SO 157 0,7 C 4,1 km/h (1 Bft)
21.04.2015 20:55 10,1 C 10,0 C 52 % 1025,2 hPa 0,0 mm 3,4 km/h (1 Bft) S 180 0,7 C 3,6 km/h (1 Bft)
21.04.2015 21:00 9,9 C 9,8 C 52 % 1025,2 hPa 0,0 mm 3,1 km/h (1 Bft) S 180 0,5 C 9,8 km/h (2 Bft)
21.04.2015 21:05 10,0 C 9,8 C 52 % 1025,2 hPa 0,0 mm 4,9 km/h (1 Bft) S-SO 157 0,6 C 4,7 km/h (1 Bft)
21.04.2015 21:10 9,9 C 9,7 C 51 % 1025,2 hPa 0,0 mm 6,0 km/h (2 Bft) S-SO 157 0,2 C 4,1 km/h (1 Bft)
21.04.2015 21:15 9,3 C 9,3 C 53 % 1025,6 hPa 0,0 mm 4,9 km/h (1 Bft) SO 135 0,2 C 6,7 km/h (2 Bft)
21.04.2015 21:20 9,0 C 9,0 C 53 % 1025,6 hPa 0,0 mm 4,9 km/h (1 Bft) S-SO 157 -0,1 C 4,9 km/h (1 Bft)
21.04.2015 21:25 8,8 C 8,7 C 54 % 1025,6 hPa 0,0 mm 4,7 km/h (1 Bft) S-SO 157 0,0 C 4,7 km/h (1 Bft)
21.04.2015 21:30 8,5 C 8,4 C 54 % 1025,6 hPa 0,0 mm 3,6 km/h (1 Bft) SO 135 -0,3 C 3,1 km/h (1 Bft)
21.04.2015 21:35 8,8 C 8,5 C 55 % 1026,0 hPa 0,0 mm 1,3 km/h (1 Bft) SO 135 0,3 C 0,0 km/h (0 Bft)
21.04.2015 21:40 8,9 C 8,5 C 54 % 1026,0 hPa 0,0 mm 0,3 km/h (0 Bft) SO 135 0,1 C 0,0 km/h (0 Bft)
21.04.2015 21:45 8,7 C 8,3 C 54 % 1026,0 hPa 0,0 mm 0,3 km/h (0 Bft) O-SO 112 -0,1 C 0,0 km/h (0 Bft)
21.04.2015 21:46 8,6 C 8,1 C 54 % 1026,0 hPa 0,0 mm 0,3 km/h (0 Bft) S-SO 157 -0,2 C 0,0 km/h (0 Bft)
21.04.2015 21:48 8,6 C 8,1 C 54 % 1026,0 hPa 0,0 mm 0,3 km/h (0 Bft) S-SO 157 -0,2 C 0,0 km/h (0 Bft)
21.04.2015 21:50 8,6 C 8,1 C 54 % 1026,0 hPa 0,0 mm 0,3 km/h (0 Bft) S-SO 157 -0,2 C 0,0 km/h (0 Bft)
21.04.2015 21:55 8,5 C 8,0 C 54 % 1025,8 hPa 0,0 mm 0,0 km/h (0 Bft) SO 135 -0,3 C 0,0 km/h (0 Bft)
21.04.2015 22:00 8,4 C 7,9 C 54 % 1025,8 hPa 0,0 mm 0,0 km/h (0 Bft) SO 135 -0,4 C 0,0 km/h (0 Bft)
21.04.2015 22:05 8,4 C 7,8 C 54 % 1025,8 hPa 0,0 mm 0,0 km/h (0 Bft) SO 135 -0,4 C 0,0 km/h (0 Bft)
21.04.2015 22:06 8,2 C 7,6 C 54 % 1025,8 hPa 0,0 mm 0,0 km/h (0 Bft) SO 135 -0,5 C 0,0 km/h (0 Bft)
21.04.2015 22:08 8,2 C 7,6 C 54 % 1025,8 hPa 0,0 mm 0,0 km/h (0 Bft) SO 135 -0,5 C 0,0 km/h (0 Bft)
21.04.2015 22:10 8,2 C 7,6 C 54 % 1025,8 hPa 0,0 mm 0,0 km/h (0 Bft) SO 135 -0,5 C 0,0 km/h (0 Bft)
21.04.2015 22:15 8,0 C 7,3 C 54 % 1025,9 hPa 0,0 mm 0,0 km/h (0 Bft) SO 135 -0,7 C 0,0 km/h (0 Bft)
21.04.2015 22:20 8,0 C 7,3 C 54 % 1025,9 hPa 0,0 mm 0,0 km/h (0 Bft) O-SO 112 -0,7 C 0,0 km/h (0 Bft)
21.04.2015 22:25 7,9 C 7,2 C 54 % 1025,9 hPa 0,0 mm 0,0 km/h (0 Bft) SO 135 -0,8 C 0,0 km/h (0 Bft)
21.04.2015 22:30 7,9 C 7,2 C 54 % 1025,9 hPa 0,0 mm 0,0 km/h (0 Bft) O-SO 112 -0,8 C 0,0 km/h (0 Bft)
21.04.2015 22:35 7,8 C 7,2 C 54 % 1025,8 hPa 0,0 mm 0,0 km/h (0 Bft) S 180 -0,9 C 2,6 km/h (1 Bft)
21.04.2015 22:40 7,8 C 7,2 C 54 % 1025,8 hPa 0,0 mm 0,0 km/h (0 Bft) S-SO 157 -0,9 C 0,0 km/h (0 Bft)
21.04.2015 22:45 7,6 C 7,0 C 55 % 1025,8 hPa 0,0 mm 0,0 km/h (0 Bft) O-SO 112 -0,9 C 0,0 km/h (0 Bft)
21.04.2015 22:50 7,5 C 6,9 C 55 % 1025,8 hPa 0,0 mm 0,0 km/h (0 Bft) S 180 -0,9 C 0,0 km/h (0 Bft)
21.04.2015 22:55 7,4 C 6,8 C 55 % 1025,8 hPa 0,0 mm 0,0 km/h (0 Bft) SO 135 -1,0 C 0,0 km/h (0 Bft)
21.04.2015 23:00 7,3 C 6,7 C 55 % 1025,8 hPa 0,0 mm 0,0 km/h (0 Bft) S-SO 157 -1,1 C 0,0 km/h (0 Bft)
21.04.2015 23:05 7,2 C 6,6 C 55 % 1025,8 hPa 0,0 mm 0,0 km/h (0 Bft) O-SO 112 -1,2 C 0,0 km/h (0 Bft)
21.04.2015 23:10 6,8 C 6,3 C 55 % 1025,8 hPa 0,0 mm 0,0 km/h (0 Bft) O-SO 112 -1,6 C 0,0 km/h (0 Bft)
21.04.2015 23:15 6,2 C 5,9 C 55 % 1025,9 hPa 0,0 mm 0,0 km/h (0 Bft) O-SO 112 -2,2 C 0,0 km/h (0 Bft)
21.04.2015 23:20 6,1 C 5,8 C 56 % 1025,9 hPa 0,0 mm 0,0 km/h (0 Bft) O-SO 112 -2,0 C 0,0 km/h (0 Bft)
21.04.2015 23:25 6,1 C 5,7 C 56 % 1025,9 hPa 0,0 mm 0,0 km/h (0 Bft) O-SO 112 -2,0 C 0,0 km/h (0 Bft)
21.04.2015 23:30 6,6 C 6,0 C 57 % 1025,9 hPa 0,0 mm 0,0 km/h (0 Bft) S-SO 157 -1,3 C 0,0 km/h (0 Bft)
21.04.2015 23:35 6,2 C 5,8 C 57 % 1025,8 hPa 0,0 mm 0,0 km/h (0 Bft) SO 135 -1,7 C 0,0 km/h (0 Bft)
21.04.2015 23:40 5,9 C 5,6 C 58 % 1025,8 hPa 0,0 mm 0,0 km/h (0 Bft) SO 135 -1,7 C 0,0 km/h (0 Bft)
21.04.2015 23:45 6,1 C 5,7 C 57 % 1025,8 hPa 0,0 mm 0,0 km/h (0 Bft) O-SO 112 -1,8 C 0,0 km/h (0 Bft)
21.04.2015 23:50 6,0 C 5,6 C 58 % 1025,8 hPa 0,0 mm 0,0 km/h (0 Bft) O-SO 112 -1,6 C 0,0 km/h (0 Bft)
21.04.2015 23:55 5,4 C 5,1 C 59 % 1026,0 hPa 0,0 mm 0,0 km/h (0 Bft) O-SO 112 -2,0 C 0,0 km/h (0 Bft)
_ Min-Zeit 06:20 06:20 18:10 05:30 - 23:55 - - 06:20 23:55
Minimum _ -0,4 C -0,8 C 30 % 1023,8 hPa - 0,0 km/h (0 Bft) - - -3,1 C 0,0 km/h (0 Bft)
_ Max-Zeit 15:50 16:30 07:35 13:10 23:55 14:50 - - 09:00 13:10
Maximum _ 18,4 C 23,7 C 85 % 1027,5 hPa 0,0 mm 10,4 km/h
N-NW (2 Bft)
- - 4,8 C 20,5 km/h
W-NW (4 Bft)
Durchschnitt _ 9,6 C 11,8 C 56 % 1025,4 hPa #0,0 mm 2,6 km/h (1 Bft) NW - 0,2 C 3,5 km/h (1 Bft)